Regional Weather Roundup
Issued by NWS

Home | Current Version | Previous Version | Graphics & Text | Print | Product List | Glossary On
Versions: 1 2 3 4 5 6 7 8 9 10 11 12 13 14 15 16 17 18 19 20 21 22 23 24 25 26 27 28 29 30 31 32 33 34 35 36 37 38 39 40 41 42 43 44 45 46 47 48 49 50
000
ASUS43 KOAX 162102
RWRNE

WEATHER ROUNDUP FOR NEBRASKA
NATIONAL WEATHER SERVICE OMAHA NE
300 PM CST MON JAN 16 2017

NOTES: SATELLITE DATA IS BEING USED TO AUGMENT CLOUD COVER ABOVE
       12000 FEET.
       "FAIR" INDICATES FEW OR NO CLOUDS BELOW 12,000 FEET WITH NO
       SIGNIFICANT WEATHER AND/OR OBSTRUCTIONS TO VISIBILITY.

  * THESE STATIONS DO NOT REPORT WEATHER SUCH AS RAIN...SNOW OR FOG.

NEZ001>004-019>022-054>056-162200-
NEBRASKA PANHANDLE

CITY           SKY/WX    TMP DP  RH WIND       PRES   REMARKS
SCOTTSBLUFF    CLOUDY    41  17  38 NW12      30.04F
ALLIANCE       CLOUDY    38  15  39 N17       30.02S WCI  28
CHADRON        SUNNY     34  18  52 NW14      30.07F WCI  25
KIMBALL        CLOUDY    37  20  49 N15       30.03S WCI  28
SIDNEY         CLOUDY    36  20  52 MISG      30.02S
$$

NEZ057>060-069>072-079>082-162200-
SOUTHWEST NEBRASKA

CITY           SKY/WX    TMP DP  RH WIND       PRES   REMARKS
NORTH PLATTE   CLOUDY    36  30  79 N8        29.98R WCI  30
IMPERIAL       CLOUDY    35  28  75 N16       29.98R WCI  25
LEXINGTON      DRIZZLE   33  31  91 N16G22    29.94R WCI  23
MCCOOK         LGT SNOW  34  33  96 N14       29.95R FOG     WCI  25
OGALLALA       CLOUDY    37  29  72 NW14G20   30.00S WCI  29
$$

NEZ005>010-023>029-035>040-094-162200-
NORTH CENTRAL NEBRASKA

CITY           SKY/WX    TMP DP  RH WIND       PRES   REMARKS
VALENTINE      CLOUDY    33  13  43 NW17      30.02S WCI  22
AINSWORTH      CLOUDY    35  25  67 NW12      29.99S WCI  27
BROKEN BOW     MIX PCPN  33  29  85 N18       29.94S WCI  22
O`NEILL        CLOUDY    31  28  88 N10       29.98F WCI  22
ORD            FRZ RAIN  32  27  81 N14       29.94S WCI  22
THEDFORD       CLOUDY    37  28  67 N18       29.98S WCI  27
$$

NEZ041-046>049-061>064-073>077-083>087-162200-
SOUTH CENTRAL NEBRASKA

CITY           SKY/WX    TMP DP  RH WIND       PRES   REMARKS
GRAND ISLAND   FRZ RAIN N/A N/A N/A N9        29.91S FOG
AURORA         MIX PCPN  32  32  99 N3        29.90R
HASTINGS       MIX PCPN  33  31  92 N15       29.90S WCI  23
HEBRON         CLOUDY    32  32  99 N3        29.88R FOG
HOLDREGE       DRIZZLE   33  32  97 N5        29.91R WCI  28
KEARNEY *      CLOUDY    32  28  86 N6        29.91S WCI  26
YORK           CLOUDY    32  32 100 CALM      29.89S
$$

NEZ011>018-030>034-042>045-162200-
NORTHEAST NEBRASKA

CITY           SKY/WX    TMP DP  RH WIND       PRES   REMARKS
NORFOLK        FRZ RAIN  31  29  92 N15       29.92S FOG     WCI  20
ALBION         LGT SNOW  32  30  93 N8        29.92S WCI  25
BLAIR          CLOUDY    33  32  97 N6        29.87S FOG     WCI  27
FREMONT        MIX PCPN  32  32 100 N5        29.90F WCI  28
TEKAMAH        LGT RAIN  33  31  92 N12       29.91S FOG     WCI  24
WAYNE          MIX PCPN  32  32  99 N8        29.93S WCI  25
$$

NEZ050>053-065>068-078-088>093-162200-
SOUTHEAST NEBRASKA

CITY           SKY/WX    TMP DP  RH WIND       PRES   REMARKS
LINCOLN        CLOUDY    33  32  96 N10       29.89S WCI  25
OMAHA EPPLEY   LGT RAIN  35  31  85 N12       29.89S FOG     WCI  27
BEATRICE       CLOUDY    33  33  99 N5        29.86R FOG     WCI  29
FALLS CITY     FOG       37  36  96 N5        29.82S VSB 1/4 WCI  33
NEBRASKA CITY  FOG       33  33 100 N6        29.85R VSB 1/4 WCI  28
PLATTSMOUTH    CLOUDY   N/A N/A N/A MISG        N/A
$$

NEZ044-045-051>053-067-162200-
OMAHA AREA

CITY           SKY/WX    TMP DP  RH WIND       PRES   REMARKS
OMAHA EPPLEY   LGT RAIN  35  31  85 N12       29.89S FOG     WCI  27
BLAIR          CLOUDY    33  32  97 N6        29.87S FOG     WCI  27
FREMONT        MIX PCPN  32  32 100 N5        29.90F WCI  28
MILLARD        DRIZZLE   36  34  94 N3        29.89S
PLATTSMOUTH    CLOUDY   N/A N/A N/A MISG        N/A
WAHOO          CLOUDY    32  32  99 N12       29.89S FOG     WCI  23
$$




USA.gov is the U.S. government's official web portal to all federal, state and local government web resources and services.